Temp
-16 -16 -16 -15 -15 -15 -15 -15 -15 -15 -15 -15 -15 -15 -15 -15 -15 -15 -15 -15 -15 -15 -15 -15 -16 -16 -16 -16 -15 -16 -16 -16 -16 -16 -16 -16 -17 -17 -17 -18 -18 -18 -18
-16 -16 -16 -16 -16 -15 -16 -16 -16 -15 -15 -15 -15 -16 -16 -16 -16 -15 -15 -15 -15 -15 -15 -16 -16 -16 -15 -15 -16 -16 -16 -16 -16 -17 -17 -17 -17 -18 -19 -19 -18 -18 -19
-16 -16 -16 -16 -16 -16 -16 -16 -16 -16 -16 -16 -16 -16 -16 -16 -16 -16 -16 -16 -15 -16 -16 -16 -16 -16 -15 -16 -16 -16 -16 -17 -17 -18 -18 -18 -18 -18 -18 -19 -19 -19 -19
-16 -16 -16 -16 -16 -16 -16 -16 -16 -16 -16 -16 -16 -16 -15 -16 -16 -16 -16 -16 -16 -16 -16 -16 -15 -15 -16 -16 -16 -16 -17 -18 -18 -18 -18 -19 -19 -19 -19 -19 -19 -20 -20
-16 -16 -16 -16 -15 -15 -15 -15 -15 -15 -15 -15 -15 -16 -16 -15 -16 -16 -16 -16 -16 -16 -16 -16 -16 -17 -16 -17 -17 -17 -18 -18 -18 -18 -18 -18 -19 -19 -20 -20 -20 -20 -20
-15 -15 -16 -16 -16 -16 -16 -15 -15 -16 -16 -16 -16 -15 -15 -16 -16 -16 -16 -16 -16 -16 -16 -16 -16 -16 -17 -16 -17 -18 -18 -18 -18 -19 -19 -19 -19 -20 -20 -20 -20 -20 -21
-15 -15 -15 -15 -15 -15 -15 -15 -15 -15 -16 -15 -16 -15 -15 -16 -15 -16 -16 -16 -16 -16 -16 -16 -17 -17 -16 -17 -18 -18 -18 -18 -19 -19 -19 -20 -20 -20 -20 -20 -21 -21 -21
-16 -16 -16 -16 -16 -16 -15 -15 -16 -15 -15 -15 -15 -15 -16 -16 -16 -16 -16 -16 -16 -16 -16 -16 -16 -16 -17 -18 -18 -18 -18 -19 -19 -19 -20 -20 -20 -20 -20 -21 -21 -22 -22
-16 -16 -16 -16 -16 -16 -16 -16 -16 -16 -16 -15 -15 -17 -17 -16 -16 -16 -16 -16 -16 -16 -16 -16 -17 -17 -18 -18 -18 -18 -19 -20 -19 -19 -20 -20 -21 -21 -21 -21 -22 -23 -23
-16 -16 -16 -16 -16 -16 -16 -16 -16 -16 -16 -16 -16 -16 -16 -16 -16 -16 -16 -16 -16 -16 -17 -17 -17 -17 -18 -18 -18 -19 -20 -20 -20 -20 -21 -21 -21 -21 -21 -22 -23 -23 -23
-16 -16 -16 -16 -16 -16 -16 -16 -16 -16 -16 -16 -16 -16 -16 -16 -16 -16 -16 -16 -17 -17 -17 -17 -17 -17 -18 -18 -19 -20 -20 -21 -21 -21 -21 -21 -21 -22 -22 -23 -23 -24 -24
-16 -16 -17 -16 -16 -16 -16 -16 -16 -16 -16 -16 -16 -16 -16 -17 -16 -16 -16 -17 -17 -16 -17 -17 -18 -18 -18 -19 -20 -20 -20 -21 -21 -21 -21 -22 -22 -22 -23 -23 -24 -24 -25
-16 -16 -16 -16 -16 -16 -16 -16 -16 -16 -16 -16 -16 -17 -17 -16 -16 -16 -16 -17 -16 -16 -17 -17 -18 -18 -19 -20 -20 -20 -21 -21 -21 -21 -21 -21 -22 -22 -23 -24 -24 -25 -25
-16 -16 -16 -16 -16 -17 -17 -16 -16 -16 -16 -16 -17 -17 -16 -16 -16 -16 -16 -16 -17 -18 -18 -18 -18 -18 -19 -19 -20 -20 -20 -21 -21 -21 -21 -21 -22 -23 -24 -25 -25 -26 -26
-16 -16 -16 -17 -17 -17 -17 -16 -16 -16 -17 -17 -17 -17 -17 -16 -16 -16 -16 -17 -17 -17 -17 -18 -18 -19 -20 -20 -20 -21 -21 -21 -21 -21 -22 -22 -23 -24 -25 -25 -26 -26 -28
-16 -16 -17 -17 -17 -17 -17 -16 -16 -17 -17 -17 -16 -16 -16 -16 -16 -16 -16 -16 -17 -17 -18 -18 -19 -19 -20 -20 -20 -21 -21 -21 -21 -22 -23 -23 -24 -25 -25 -26 -27 -28 -30
-16 -17 -17 -17 -17 -17 -17 -17 -17 -16 -16 -16 -16 -16 -16 -16 -16 -16 -17 -17 -17 -17 -18 -19 -19 -20 -20 -21 -21 -22 -22 -22 -22 -22 -23 -24 -25 -25 -26 -27 -28 -29 -31
-16 -17 -17 -17 -17 -17 -17 -16 -16 -16 -16 -16 -16 -16 -16 -16 -17 -17 -17 -17 -17 -18 -18 -19 -20 -20 -21 -22 -22 -22 -22 -22 -22 -23 -24 -25 -25 -26 -27 -28 -29 -31 -32
-16 -17 -17 -17 -17 -17 -17 -17 -16 -16 -16 -16 -16 -16 -17 -17 -17 -17 -17 -17 -18 -18 -19 -20 -20 -21 -22 -22 -22 -22 -22 -22 -23 -24 -25 -26 -26 -27 -28 -30 -31 -32 -32
-16 -17 -17 -17 -17 -17 -17 -16 -16 -16 -16 -16 -16 -17 -17 -17 -17 -17 -18 -18 -19 -19 -19 -20 -21 -22 -22 -22 -22 -22 -22 -23 -24 -25 -25 -26 -27 -29 -30 -31 -32 -32 -32
-17 -17 -17 -17 -17 -16 -16 -16 -16 -16 -16 -17 -17 -17 -17 -18 -18 -18 -18 -19 -19 -19 -20 -21 -21 -21 -22 -22 -22 -23 -23 -24 -24 -25 -26 -27 -28 -30 -31 -32 -32 -32 -33
-17 -17 -17 -16 -16 -16 -16 -16 -17 -17 -17 -17 -17 -18 -18 -18 -18 -18 -19 -19 -19 -20 -21 -21 -21 -22 -22 -22 -23 -24 -24 -25 -25 -26 -27 -28 -30 -31 -32 -32 -32 -33 -33
-17 -17 -17 -17 -17 -17 -17 -17 -17 -17 -17 -18 -18 -18 -18 -18 -18 -19 -19 -19 -20 -21 -21 -21 -22 -22 -22 -23 -24 -24 -25 -26 -27 -28 -29 -30 -30 -31 -32 -32 -33 -33 -33
-17 -17 -17 -17 -17 -17 -17 -17 -17 -18 -18 -18 -18 -18 -18 -19 -19 -19 -20 -20 -21 -21 -21 -22 -22 -22 -23 -23 -24 -25 -25 -26 -27 -28 -29 -30 -31 -31 -32 -32 -33 -33 -33
-17 -17 -17 -17 -17 -17 -17 -18 -18 -18 -18 -18 -18 -19 -19 -19 -20 -20 -20 -20 -21 -21 -22 -22 -23 -23 -23 -24 -25 -25 -26 -27 -28 -29 -30 -30 -31 -31 -32 -33 -34 -34 -35
-17 -17 -17 -18 -18 -18 -18 -18 -18 -18 -19 -19 -19 -19 -20 -20 -20 -20 -21 -21 -22 -22 -23 -23 -23 -24 -25 -25 -26 -27 -28 -29 -30 -30 -31 -30 -31 -31 -33 -34 -34 -34 -35
Height
5764 5765 5766 5767 5767 5768 5769 5769 5770 5771 5772 5773 5776 5778 5778 5781 5784 5785 5787 5787 5790 5791 5791 5790 5789 5788 5786 5783 5778 5774 5771 5766 5762 5756 5752 5750 5744 5739 5732 5728 5723 5718 5714
5764 5766 5767 5768 5769 5770 5770 5770 5771 5772 5773 5775 5776 5776 5776 5780 5781 5783 5784 5785 5788 5786 5785 5784 5783 5780 5778 5773 5769 5765 5762 5757 5752 5747 5741 5735 5730 5730 5724 5717 5712 5708 5702
5765 5765 5767 5768 5769 5769 5769 5770 5771 5772 5772 5774 5774 5773 5774 5775 5778 5781 5782 5783 5782 5780 5779 5777 5775 5773 5769 5765 5761 5757 5752 5748 5743 5737 5730 5724 5720 5714 5709 5706 5700 5695 5688
5765 5765 5767 5768 5768 5768 5768 5769 5769 5770 5771 5770 5770 5772 5773 5774 5775 5775 5776 5776 5774 5773 5771 5769 5766 5763 5760 5756 5751 5747 5743 5738 5732 5726 5721 5715 5709 5703 5696 5692 5688 5682 5674
5763 5765 5766 5767 5767 5767 5768 5769 5769 5769 5769 5768 5769 5768 5770 5771 5770 5770 5770 5770 5768 5766 5763 5760 5757 5754 5750 5746 5742 5738 5733 5727 5721 5714 5709 5705 5700 5693 5686 5679 5670 5663 5658
5763 5763 5763 5764 5765 5765 5765 5765 5766 5765 5763 5763 5762 5762 5765 5765 5764 5763 5764 5763 5761 5759 5756 5753 5749 5746 5742 5738 5733 5728 5722 5716 5710 5704 5699 5693 5687 5680 5674 5666 5659 5650 5641
5760 5760 5761 5763 5763 5763 5762 5762 5762 5758 5757 5758 5754 5756 5759 5760 5759 5759 5758 5756 5755 5752 5748 5745 5742 5738 5734 5729 5722 5718 5712 5706 5700 5693 5688 5682 5675 5668 5660 5652 5644 5635 5625
5756 5758 5759 5758 5758 5758 5758 5758 5757 5756 5742 5756 5751 5751 5754 5756 5756 5755 5752 5750 5748 5744 5740 5737 5733 5729 5725 5719 5713 5707 5701 5695 5688 5681 5674 5668 5661 5654 5645 5637 5629 5620 5609
5754 5755 5755 5754 5754 5754 5755 5754 5753 5752 5752 5747 5747 5746 5750 5751 5749 5748 5746 5743 5740 5735 5732 5728 5723 5718 5714 5708 5701 5696 5690 5684 5676 5667 5660 5653 5646 5638 5630 5622 5613 5605 5595
5751 5751 5751 5750 5750 5751 5751 5750 5750 5749 5748 5747 5744 5744 5745 5744 5742 5741 5738 5734 5729 5726 5723 5719 5714 5709 5703 5697 5690 5683 5678 5669 5660 5652 5646 5639 5631 5623 5615 5605 5597 5588 5579
5746 5747 5746 5746 5745 5745 5745 5745 5745 5745 5744 5743 5742 5739 5737 5735 5733 5731 5727 5724 5721 5717 5714 5710 5704 5698 5692 5685 5678 5672 5664 5657 5648 5638 5631 5623 5616 5607 5599 5590 5580 5571 5561
5740 5740 5741 5741 5742 5742 5741 5740 5739 5739 5738 5736 5734 5732 5729 5726 5723 5721 5718 5715 5711 5707 5703 5698 5693 5688 5680 5672 5666 5659 5651 5642 5632 5624 5618 5609 5601 5593 5582 5572 5563 5554 5543
5733 5734 5734 5735 5735 5735 5735 5734 5733 5732 5730 5728 5726 5724 5721 5718 5715 5712 5709 5705 5700 5696 5691 5686 5681 5673 5667 5660 5653 5647 5637 5629 5622 5613 5605 5596 5586 5575 5564 5554 5545 5536 5526
5727 5726 5726 5726 5726 5727 5727 5727 5727 5725 5724 5721 5719 5716 5713 5710 5706 5703 5699 5695 5690 5684 5679 5673 5666 5661 5654 5646 5639 5633 5625 5617 5609 5600 5591 5580 5569 5558 5548 5538 5529 5520 5510
5720 5719 5718 5718 5718 5718 5718 5719 5718 5717 5714 5712 5710 5708 5704 5701 5698 5694 5689 5684 5678 5672 5666 5660 5655 5648 5641 5633 5625 5618 5611 5602 5594 5585 5574 5563 5553 5544 5533 5523 5512 5502 5493
5713 5712 5712 5711 5711 5711 5711 5710 5710 5709 5706 5704 5701 5699 5696 5692 5687 5682 5677 5672 5667 5661 5655 5649 5641 5635 5627 5620 5613 5604 5597 5588 5579 5569 5557 5547 5538 5527 5517 5508 5498 5488 5476
5704 5705 5705 5705 5705 5704 5704 5703 5701 5699 5697 5695 5692 5689 5686 5681 5676 5672 5667 5661 5655 5648 5642 5635 5627 5620 5612 5604 5597 5589 5581 5573 5562 5552 5541 5531 5520 5512 5500 5491 5481 5473 5464
5696 5697 5697 5696 5696 5696 5696 5695 5693 5692 5689 5686 5683 5679 5675 5670 5665 5660 5654 5648 5642 5634 5626 5619 5612 5604 5596 5589 5581 5574 5566 5556 5546 5535 5525 5514 5504 5492 5483 5470 5462 5458 5449
5688 5688 5689 5689 5689 5688 5687 5686 5685 5683 5680 5677 5673 5668 5663 5658 5653 5647 5641 5635 5627 5620 5612 5604 5596 5589 5582 5574 5565 5558 5549 5540 5530 5518 5508 5497 5486 5474 5464 5453 5447 5440 5434
5680 5681 5681 5681 5681 5680 5679 5678 5676 5673 5669 5665 5661 5656 5651 5645 5640 5634 5627 5620 5612 5605 5597 5589 5582 5575 5568 5560 5550 5540 5530 5523 5513 5502 5490 5479 5467 5454 5445 5437 5430 5426 5419
5673 5673 5673 5673 5673 5672 5670 5668 5666 5662 5658 5654 5649 5643 5638 5631 5625 5619 5612 5605 5597 5590 5583 5576 5569 5561 5552 5542 5532 5519 5509 5499 5494 5482 5472 5458 5447 5439 5426 5419 5412 5409 5402
5665 5666 5666 5665 5665 5663 5661 5659 5655 5651 5646 5641 5636 5631 5625 5619 5612 5605 5598 5592 5584 5576 5568 5561 5552 5543 5534 5525 5514 5501 5488 5477 5467 5461 5450 5438 5427 5418 5409 5399 5395 5389 5383
5657 5657 5657 5656 5655 5653 5650 5647 5642 5638 5633 5628 5623 5617 5610 5604 5597 5590 5583 5575 5567 5560 5552 5544 5535 5527 5517 5507 5495 5483 5471 5458 5444 5432 5423 5414 5405 5395 5386 5380 5374 5369 5365
5650 5649 5648 5647 5644 5641 5637 5634 5629 5624 5619 5613 5607 5601 5594 5587 5580 5572 5565 5557 5550 5543 5536 5527 5518 5508 5496 5486 5475 5464 5452 5440 5427 5414 5404 5392 5381 5372 5363 5357 5352 5349 5346
5641 5639 5637 5635 5632 5628 5624 5620 5615 5609 5603 5597 5591 5584 5577 5570 5563 5556 5548 5540 5533 5525 5516 5508 5498 5488 5477 5465 5452 5440 5428 5414 5403 5391 5382 5371 5360 5350 5342 5336 5333 5330 5329
5630 5627 5625 5622 5618 5614 5609 5604 5599 5594 5587 5581 5574 5567 5561 5554 5546 5538 5532 5523 5512 5505 5497 5489 5480 5467 5455 5443 5431 5417 5403 5390 5377 5368 5356 5348 5338 5329 5323 5320 5318 5316 5315
Wind_Speed
11 11 11 11 11 10 9 10 11 12 12 12 12 15 15 16 18 16 14 12 13 13 15 18 21 25 29 31 35 38 40 42 41 45 48 47 46 47 49 50 48 47 47
10 12 13 13 12 12 11 11 13 12 13 13 12 12 13 15 15 15 14 15 18 18 19 21 25 28 33 33 37 40 42 40 44 47 50 54 53 48 49 51 50 49 50
9 11 12 13 14 12 11 11 13 13 11 10 9 10 14 14 16 16 16 20 23 25 28 29 35 37 38 39 42 41 41 43 47 50 52 54 54 53 55 53 54 54 56
8 10 12 12 13 13 12 12 13 15 14 13 14 14 16 17 19 19 19 21 23 23 25 31 36 39 42 42 45 43 44 47 52 53 54 54 54 55 56 57 56 59 63
11 12 12 13 14 15 16 17 18 19 20 21 22 22 21 21 19 16 15 19 23 26 30 34 36 39 41 45 48 46 47 54 57 57 59 58 57 53 56 59 63 64 66
14 16 18 19 18 20 20 21 19 19 22 26 30 21 22 19 18 19 19 23 27 29 33 35 37 43 44 47 47 49 55 59 58 61 61 60 56 56 59 62 64 68 71
19 20 21 23 24 25 22 21 20 26 22 31 26 30 27 21 20 21 24 27 30 31 33 38 40 44 48 49 50 57 61 60 62 63 61 57 57 59 63 67 70 73 77
23 20 18 22 26 27 26 25 25 23 27 26 23 16 13 17 20 25 28 30 32 30 33 35 39 41 50 49 57 59 58 59 61 61 59 58 59 63 67 70 74 78 82
21 21 23 25 28 29 28 29 29 24 23 27 23 13 15 23 25 27 29 32 30 32 36 42 44 49 51 58 60 58 56 58 60 60 59 61 64 67 70 73 76 80 82
24 22 22 26 28 27 27 23 21 22 24 24 27 27 27 27 29 30 30 32 33 37 39 41 49 53 57 63 59 57 57 60 60 62 63 65 69 70 72 74 80 82 80
22 21 20 21 21 21 20 22 23 25 27 27 30 33 34 32 31 31 33 35 36 40 41 47 53 56 63 59 57 58 58 60 61 64 67 69 72 73 74 78 83 80 80
25 25 24 24 24 25 24 24 26 27 29 31 34 33 33 37 34 36 36 37 38 42 46 51 55 60 59 58 59 60 63 61 61 66 67 74 76 74 78 85 81 81 81
25 26 26 27 30 29 30 30 29 29 31 34 34 35 38 37 37 38 39 38 44 48 50 50 53 54 56 57 58 61 60 58 61 69 73 72 81 84 89 85 82 82 83
23 24 25 27 28 31 31 31 30 31 32 33 35 36 37 37 38 40 41 43 47 48 51 53 55 58 58 61 60 57 61 65 67 71 78 85 85 87 86 82 82 83 83
22 22 25 26 26 28 29 29 29 31 33 34 35 35 37 39 37 39 43 46 48 51 54 55 56 57 54 63 66 67 64 68 71 79 81 82 84 83 82 82 83 84 80
22 22 25 26 27 27 28 30 31 31 32 33 34 35 38 40 42 44 47 49 52 54 56 57 59 59 55 59 68 64 66 70 75 79 82 82 82 81 82 83 83 80 71
27 26 28 28 27 27 29 30 32 33 32 33 36 38 40 42 44 46 48 51 53 56 58 59 61 61 60 61 63 66 71 73 78 80 82 82 82 82 83 83 81 72 63
29 27 28 28 29 29 29 30 30 31 33 35 37 39 42 44 46 49 51 53 56 57 59 60 62 62 61 62 64 68 71 75 78 79 81 80 81 83 83 80 75 65 60
25 25 24 25 26 27 27 28 30 32 34 36 39 42 44 47 49 51 53 56 58 60 61 62 61 60 60 63 66 71 74 76 78 79 79 80 82 84 82 76 70 62 60
23 22 23 24 24 24 26 28 30 33 36 39 42 44 46 49 51 53 56 58 60 61 62 62 60 61 63 67 71 75 78 78 78 79 81 84 84 82 79 73 66 63 64
23 23 22 22 24 25 27 30 33 37 40 42 45 47 50 51 54 57 59 61 61 62 61 59 61 65 68 70 74 79 81 82 82 83 83 84 83 79 74 69 68 66 66
21 20 21 23 25 28 31 34 38 41 43 45 47 49 51 53 57 60 61 62 63 62 60 62 65 68 71 76 79 82 84 85 86 86 86 86 82 77 73 73 71 69 65
20 22 24 26 29 33 37 40 44 46 48 50 52 53 55 57 60 62 63 65 64 63 63 67 69 73 77 81 82 83 84 84 86 87 87 83 79 78 75 72 68 64 61
25 27 29 32 36 40 43 46 48 50 51 53 55 57 59 61 62 64 65 65 64 64 67 71 74 79 83 85 87 87 86 88 88 87 84 83 79 74 72 69 65 59 55
31 34 37 40 43 46 49 51 53 53 55 56 59 60 60 62 64 66 66 66 66 68 71 75 79 82 85 87 87 88 90 91 90 88 82 74 73 70 65 56 50 49 46
38 40 43 47 50 52 53 54 55 56 57 59 61 59 61 65 66 66 66 68 71 73 77 80 83 85 86 86 87 88 88 88 87 79 77 72 67 58 46 41 40 40 40
Wind_Direction
166 171 168 168 162 164 172 174 172 168 166 178 195 210 214 219 222 221 216 218 230 241 256 267 279 284 287 291 298 302 305 304 304 305 303 304 303 301 302 303 301 300 299
177 185 189 189 189 194 197 197 198 199 201 206 206 204 199 204 209 212 221 232 241 249 260 272 279 287 293 295 302 304 303 304 308 308 308 309 311 303 302 302 300 299 301
201 201 202 201 200 208 212 212 217 226 230 237 233 212 207 207 222 230 241 248 253 258 265 275 281 288 295 296 306 308 307 308 309 311 311 309 307 303 302 302 301 303 304
219 220 213 210 215 226 237 245 254 251 248 256 256 243 233 227 235 246 257 266 275 279 281 280 285 288 291 297 309 308 307 310 310 310 311 308 304 301 302 304 304 305 305
211 210 222 230 238 245 246 250 251 248 249 249 248 244 234 233 241 254 264 278 286 289 287 287 284 292 298 304 307 306 307 309 310 310 310 305 303 302 305 306 307 308 307
248 242 236 238 250 256 261 264 267 260 248 255 246 246 252 245 251 260 279 288 293 292 288 283 284 295 295 305 302 307 308 308 311 308 306 305 304 304 307 306 307 311 310
261 262 262 258 251 257 265 273 281 280 276 282 277 276 248 256 275 285 287 294 295 289 282 283 290 293 298 304 307 304 303 306 307 306 304 303 303 304 307 308 310 310 310
258 264 275 275 271 271 282 287 284 278 293 280 285 256 257 277 284 291 297 293 292 289 287 284 293 301 304 303 302 302 305 304 303 304 303 302 304 307 308 311 311 310 310
248 255 260 266 268 269 276 281 278 280 282 283 286 311 298 288 292 295 293 293 294 301 292 292 291 292 298 304 304 302 301 302 303 303 302 304 305 307 309 309 311 312 310
238 243 254 261 267 270 272 269 266 273 279 284 285 298 295 290 295 295 296 298 300 300 292 290 285 287 297 301 302 303 303 307 308 305 305 305 306 306 304 306 308 311 310
243 244 250 251 252 256 258 257 263 269 277 283 288 291 294 292 292 297 300 302 297 292 285 282 279 286 299 300 301 302 304 306 303 306 307 304 303 302 303 304 311 311 312
242 244 253 252 251 253 254 257 263 270 277 283 286 292 293 298 299 302 300 295 290 287 283 283 290 292 299 302 302 303 304 307 307 304 303 301 299 300 300 310 311 312 314
258 256 256 252 252 254 255 257 263 271 277 281 286 289 292 295 298 302 300 289 293 297 298 299 297 300 302 299 297 302 308 303 297 298 297 301 301 303 307 311 312 313 313
263 264 260 255 255 254 257 259 265 271 277 282 286 288 291 294 297 296 293 292 292 296 296 300 302 303 303 300 300 304 299 296 292 297 299 302 304 306 307 310 312 312 312
267 261 264 264 259 260 264 269 273 277 281 285 287 288 291 292 291 293 298 299 300 302 302 302 301 300 297 285 294 298 293 294 294 299 301 303 304 305 308 310 311 310 310
268 262 259 261 265 268 272 274 275 277 281 284 286 287 289 294 300 301 302 302 302 301 300 300 299 298 292 283 295 297 298 299 299 301 302 302 304 307 308 308 308 308 309
268 262 259 259 261 265 269 275 279 282 285 286 288 291 295 298 298 298 299 300 300 299 300 299 299 299 296 297 298 296 300 302 302 302 303 304 306 307 307 306 307 309 308
266 265 262 260 260 266 270 273 275 279 283 287 291 294 295 295 296 297 298 300 300 300 300 300 300 300 299 299 301 302 305 305 304 304 304 306 306 305 305 306 308 308 307
263 263 262 261 263 266 270 273 277 282 288 291 293 294 294 294 295 296 298 300 301 301 301 300 300 299 299 301 302 304 306 306 306 306 306 305 305 304 305 305 306 304 303
258 256 257 261 264 267 272 279 286 291 293 294 294 294 295 296 296 299 301 302 301 302 302 301 299 298 300 302 304 307 309 309 308 308 307 305 304 304 305 304 301 301 300
251 257 261 263 268 275 283 289 292 294 296 298 299 298 297 298 300 301 302 302 303 301 299 297 296 299 303 306 307 309 310 309 309 308 306 304 304 305 303 300 299 299 297
255 257 263 271 278 285 290 293 295 299 300 300 300 300 298 296 298 300 301 302 303 301 299 299 301 304 307 309 310 311 310 310 309 308 306 306 306 304 301 298 297 297 294
259 267 274 280 285 290 294 298 300 301 300 299 298 298 296 298 300 302 304 304 304 302 302 302 304 307 309 310 311 311 310 308 306 306 307 307 306 303 299 296 295 293 293
267 272 278 283 288 294 299 300 300 299 297 297 298 300 299 300 303 305 306 305 304 302 303 305 307 309 310 310 311 311 310 309 308 308 308 307 305 302 299 295 292 290 288
274 279 284 289 293 296 298 299 299 298 297 298 299 301 302 303 305 305 305 305 304 305 307 308 309 309 310 311 311 312 311 310 310 310 309 307 305 302 299 294 289 286 284
280 283 287 291 294 296 297 297 297 297 297 299 303 303 304 306 306 306 306 308 308 309 309 310 310 311 312 312 312 312 311 311 311 311 310 309 307 305 301 296 292 286 280